Location: Kunchanapalle
(16.4623°N, 80.6176°E)
Time: 18:19:57
(UTC+00:00)

USA 81 - Pass Details

Date: 13 August 2020
Orbit: 786 x 788 km, 85.0° (Epoch: 16 September)

Event Time Altitude Azimuth Distance (km) Brightness Sun altitude
Rises 23:38:03 0° 2° (N) 3,274 7.5 -10.8°
Reaches altitude 10° 23:40:26 10° 4° (N) 2,344 6.8 -10.2°
Maximum altitude 23:45:40 70° 88° (E) 835 4.4 -9.0°
Drops below altitude 10° 23:50:54 10° 171° (S) 2,340 6.4 -7.9°
Sets 23:53:15 0° 174° (S) 3,267 7.1 -7.3°
